Regional Weather Roundup
Issued by NWS

Home | Current Version | Previous Version | Text Only | Print | Product List | Glossary Off
Versions: 1 2 3 4 5 6 7 8 9 10 11 12 13 14 15 16 17 18 19 20 21 22 23 24 25 26 27 28 29 30 31 32 33 34 35 36 37 38 39 40 41 42 43 44 45 46 47 48 49 50

000
ASUS43 KLSX 261159
RWRMO

WEATHER SUMMARY FOR MISSOURI
NATIONAL WEATHER SERVICE SPRINGFIELD MO
700 AM CDT THU MAR 26 2015

NOTE: "FAIR" INDICATES FEW OR NO CLOUDS BELOW 12,000 FEET WITH NO
       SIGNIFICANT WEATHER AND/OR OBSTRUCTIONS TO VISIBILITY.
       CURRENT SKY AND/OR WEATHER CONDITIONS ARE NOT AVAILABLE FOR
       CHILLICOTHE AND FARMINGTON.

MOZ001>031-035>038-043-044-053-054-261300-
...NORTHERN AND WESTERN MISSOURI...

CITY           SKY/WX    TMP DP  RH WIND       PRES   REMARKS
KANSAS CTY INT PTCLDY    31  28  89 N8        30.20R WCI  23
6HR MIN TEMP:  31; 6HR MAX TEMP:  39;

KANSAS C DTWN  CLEAR     35  29  78 N7        30.20R WCI  29
6HR MIN TEMP:  35; 6HR MAX TEMP:  43;

LEE`S SUMMIT   PTCLDY    35  29  78 N9        30.18R WCI  28
6HR MIN TEMP:  35; 6HR MAX TEMP:  41;

ST JOSEPH      CLEAR     28  26  92 N3        30.22R
6HR MIN TEMP:  28; 6HR MAX TEMP:  38;

CHILLICOTHE      N/A     33  28  81 NW5       30.18R WCI  29
6HR MIN TEMP:  33; 6HR MAX TEMP:  42;

KIRKSVILLE     CLEAR     31  25  78 NW7       30.14R WCI  24
6HR MIN TEMP:  31; 6HR MAX TEMP:  40;


$$
MOZ066>068-077>081-088>096-101>105-261300-
...SOUTHWEST MISSOURI...

CITY           SKY/WX    TMP DP  RH WIND       PRES   REMARKS
SPRINGFIELD    CLOUDY    41  38  89 N20       30.05R
6HR MIN TEMP:  41; 6HR MAX TEMP:  49; 6HR PCP: TRACE;

JOPLIN         CLOUDY    41  37  86 N14       30.14R
6HR MIN TEMP:  41; 6HR MAX TEMP:  45; 6HR PCP:  0.02;


$$
MOZ032>034-039>042-045>050-055>058-069>072-261300-
...CENTRAL MISSOURI...

CITY           SKY/WX    TMP DP  RH WIND       PRES   REMARKS
COLUMBIA       MOCLDY    37  31  78 N18       30.11R WCI  27
6HR MIN TEMP:  37; 6HR MAX TEMP:  43; 6HR PCP:  0.08;

JEFFERSON CITY CLOUDY    40  33  76 N8        30.12R
6HR MIN TEMP:  40; 6HR MAX TEMP:  45; 6HR PCP:  0.08;

ROLLA          CLOUDY    38  36  92 MISG      30.05R
6HR MIN TEMP:  38; 6HR MAX TEMP:  44; 6HR PCP:  0.07;

SEDALIA        CLOUDY    38  33  82 N14       30.15  WCI  30
6HR MIN TEMP:  38; 6HR MAX TEMP:  45; 6HR PCP:  0.10;

OSAGE BEACH    CLOUDY    39  34  81 N8        30.10R

$$
MOZ051-052-059>065-261300-
...EAST CENTRAL MISSOURI...

CITY           SKY/WX    TMP DP  RH WIND       PRES   REMARKS
ST LOUIS INTL  DRIZZLE   41  36  82 N15       30.04R
6HR MIN TEMP:  41; 6HR MAX TEMP:  45; 6HR PCP:  0.07;

SPIRIT OF STL  CLOUDY    40  35  83 N8        30.05R
6HR MIN TEMP:  40; 6HR MAX TEMP:  45; 6HR PCP:  0.04;

ST CHARLES     CLOUDY    40  35  83 N9        30.06R
6HR MIN TEMP:  40; 6HR MAX TEMP:  44; 6HR PCP:  0.09;


$$
MOZ072>076-082>087-097>100-106>115-261300-
...SOUTH CENTRAL AND SOUTHEAST MISSOURI...

CITY           SKY/WX    TMP DP  RH WIND       PRES   REMARKS
CAPE GIRARDEAU LGT RAIN  46  44  93 N16       29.95R
6HR MIN TEMP:  46; 6HR MAX TEMP:  51; 6HR PCP:  0.51;

FARMINGTON     CLOUDY    41  39  93 N13       30.03R
6HR MIN TEMP:  41; 6HR MAX TEMP:  48; 6HR PCP:  0.31;

POPLAR BLUFF   LGT RAIN  48  43  82 N12       29.95R
6HR MIN TEMP:  48; 6HR MAX TEMP:  53; 6HR PCP:  0.38;

WEST PLAINS    LGT RAIN  43  39  86 MISG      29.99R
6HR MIN TEMP:  43; 6HR MAX TEMP:  53; 6HR PCP:  0.26;


$$



USA.gov is the U.S. government's official web portal to all federal, state and local government web resources and services.